This is the latest recevied weather packets stored in our database for station/object LRBM. If no packets are shown the sender has not sent any weather packets the latest 10 day(s).
| Time | Temp. | Humidity | Pressure | Rain* | Wind** | Luminosity | Snow |
|---|---|---|---|---|---|---|---|
| 1777943016 | 8.89° C | 66% | 1016 hPa | - | - | - | - |
| 1777941215 | 8.89° C | 66% | 1016 hPa | - | - | - | - |
| 1777940316 | 8.89° C | 66% | 1016 hPa | - | - | - | - |
| 1777937615 | 8.89° C | 66% | 1016 hPa | - | - | - | - |
| 1777936716 | 10° C | 62% | 1016 hPa | - | - | - | - |
| 1777934015 | 10° C | 62% | 1016 hPa | - | - | - | - |
| 1777933138 | 10° C | 67% | 1016 hPa | - | - | - | - |
| 1777929515 | 10° C | 71% | 1016 hPa | - | - | - | - |
| 1777926817 | 12.22° C | 58% | 1016 hPa | - | - | - | - |
| 1777925016 | 13.89° C | 51% | 1016 hPa | - | - | - | - |
| 1777923216 | 15° C | 48% | 1016 hPa | - | - | - | - |
| 1777922315 | 16.11° C | 45% | 1016 hPa | - | - | - | - |
| 1777919626 | 16.11° C | 48% | 1016 hPa | - | - | - | - |
| 1777918716 | 17.78° C | 43% | 1015 hPa | - | - | - | - |
| 1777917816 | 17.78° C | 43% | 1015 hPa | - | - | - | - |
| 1777916016 | 20° C | 38% | 1015 hPa | - | - | - | - |
| 1777915115 | 22.78° C | 27% | 1015 hPa | - | - | - | - |
| 1777914215 | 22.78° C | 27% | 1015 hPa | - | - | - | - |
| 1777913315 | 23.89° C | 24% | 1015 hPa | - | - | - | - |
| 1777912430 | 23.89° C | 24% | 1015 hPa | - | - | - | - |
| 1777911524 | 23.89° C | 24% | 1015 hPa | - | - | - | - |
| 1777910616 | 23.89° C | 24% | 1015 hPa | - | - | - | - |
| 1777909715 | 25° C | 22% | 1015 hPa | - | - | - | - |
| 1777908815 | 25° C | 22% | 1015 hPa | - | - | - | - |
| 1777907916 | 25° C | 21% | 1015 hPa | - | - | - | - |
* Rain since midnight (hover to see other rain measurements)
** Current wind speed in m/s (hover to see current wind gust speed)